Wetterdaten: Januar 2013
Datum Temp Feuchte Luftdruck Regen Wind Richtung Sonnenschein UV Solar Windben
01.01.2013 4,6 C 94 % 1005,9 hPa 11,0 l/m 7,4 km/h S 0,00 h 0,0 UV-I 25 W/m 25,3 km/h
02.01.2013 4,1 C 93 % 1022,8 hPa 1,0 l/m 4,0 km/h S-SW 0,00 h 0,5 UV-I 34 W/m 19,3 km/h
03.01.2013 7,6 C 99 % 1028,6 hPa 9,4 l/m 7,4 km/h W-SW 0,00 h 0,0 UV-I 15 W/m 31,0 km/h
04.01.2013 7,4 C 99 % 1031,0 hPa 5,4 l/m 7,5 km/h W-NW 0,00 h 0,0 UV-I 11 W/m 29,0 km/h
05.01.2013 5,8 C 99 % 1030,8 hPa 2,0 l/m 2,8 km/h NW 0,00 h 0,0 UV-I 11 W/m 18,5 km/h
06.01.2013 6,0 C 99 % 1027,2 hPa 3,2 l/m 3,7 km/h N-NW 0,00 h 0,0 UV-I 13 W/m 16,9 km/h
07.01.2013 5,8 C 99 % 1026,9 hPa 0,0 l/m 0,7 km/h W-NW 0,00 h 0,5 UV-I 34 W/m 6,0 km/h
08.01.2013 4,9 C 98 % 1023,9 hPa 3,0 l/m 3,7 km/h W-NW 0,00 h 0,0 UV-I 14 W/m 16,9 km/h
09.01.2013 4,3 C 99 % 1016,8 hPa 14,4 l/m 2,1 km/h W 0,00 h 0,0 UV-I 24 W/m 12,1 km/h
10.01.2013 0,8 C 96 % 1010,5 hPa 4,8 l/m 4,2 km/h W 0,00 h 0,0 UV-I 39 W/m 18,1 km/h
11.01.2013 -2,2 C 94 % 1017,1 hPa 0,0 l/m 0,3 km/h NW 0,00 h 0,5 UV-I 48 W/m 4,0 km/h
12.01.2013 -5,0 C 91 % 1019,3 hPa 0,0 l/m 0,1 km/h O-SO 5,42 h 0,6 UV-I 156 W/m 1,2 km/h
13.01.2013 -4,1 C 94 % 1018,2 hPa 0,2 l/m 0,9 km/h O-SO 0,00 h 0,0 UV-I 47 W/m 5,2 km/h
14.01.2013 -5,4 C 92 % 1012,6 hPa 0,0 l/m 0,4 km/h O-SO 1,25 h 0,5 UV-I 80 W/m 4,0 km/h
15.01.2013 -5,0 C 92 % 1007,5 hPa 2,0 l/m 4,7 km/h S-SO 0,00 h 0,5 UV-I 57 W/m 10,5 km/h
16.01.2013 -4,2 C 94 % 1010,8 hPa 0,2 l/m 0,8 km/h N 0,00 h 0,0 UV-I 25 W/m 5,2 km/h
17.01.2013 -3,2 C 95 % 1017,2 hPa 0,4 l/m 0,6 km/h N-NO 0,00 h 0,0 UV-I 22 W/m 3,6 km/h
18.01.2013 -4,2 C 91 % 1009,4 hPa 0,0 l/m 1,4 km/h SO 0,00 h 0,0 UV-I 21 W/m 8,4 km/h
19.01.2013 -7,3 C 86 % 1001,4 hPa 0,0 l/m 0,5 km/h O-SO 2,95 h 0,6 UV-I 124 W/m 7,6 km/h
20.01.2013 -5,5 C 91 % 998,0 hPa 1,4 l/m 3,7 km/h O-SO 0,00 h 0,5 UV-I 53 W/m 17,7 km/h
21.01.2013 -5,5 C 95 % 1001,1 hPa 7,2 l/m 1,6 km/h O-SO 0,00 h 0,0 UV-I 52 W/m 9,6 km/h
22.01.2013 -5,8 C 93 % 1007,0 hPa 0,0 l/m 0,1 km/h SO 0,00 h 0,0 UV-I 42 W/m 1,6 km/h
23.01.2013 -6,1 C 92 % 1010,3 hPa 0,0 l/m 0,0 km/h O 0,00 h 0,0 UV-I 50 W/m 0,0 km/h
24.01.2013 -3,6 C 93 % 1016,3 hPa 0,0 l/m 0,3 km/h N 0,00 h 0,5 UV-I 69 W/m 1,6 km/h
25.01.2013 -6,2 C 92 % 1018,7 hPa 0,0 l/m 10,0 km/h S-SO 0,00 h 0,6 UV-I 74 W/m 14,9 km/h
26.01.2013 -4,8 C 92 % 1011,8 hPa 0,4 l/m 9,9 km/h S-SO 4,92 h 0,8 UV-I 147 W/m 14,9 km/h
27.01.2013 1,1 C 95 % 1004,3 hPa 3,4 l/m 8,6 km/h S 0,00 h 0,6 UV-I 56 W/m 15,7 km/h
28.01.2013 2,1 C 91 % 1011,8 hPa 0,4 l/m 4,7 km/h S 0,83 h 0,6 UV-I 83 W/m 17,7 km/h
29.01.2013 7,7 C 98 % 1007,0 hPa 12,0 l/m 7,0 km/h S-SW 0,00 h 0,0 UV-I 30 W/m 19,7 km/h
30.01.2013 8,1 C 90 % 1005,6 hPa 6,8 l/m 11,3 km/h S-SW 0,00 h 0,0 UV-I 24 W/m 31,8 km/h
31.01.2013 5,0 C 86 % 1009,2 hPa 1,0 l/m 14,1 km/h S-SW 0,00 h 0,5 UV-I 45 W/m 35,8 km/h
Min-Datum 15.01.13 31.01.13 20.01.13 21 Tage 01.01.13 - - - - 06.01.13
Min-Zeit 02:55 12:45 15:00 - 18:00 - - - - 22:10
Minimum -10,0 C 69 % 996,9 hPa - 0,0 km/h - - - - 0,0 km/h
Max-Datum 30.01.13 03.01.13 04.01.13 09.01.13 31.01.13 - 12.01.13 26.01.13 26.01.13 30.01.13
Max-Zeit 10:35 04:55 00:55 00:30 14:55 - 15:40 12:15 12:20 17:35
Maximum 11,4 C 100 % 1032,4 hPa 14,4 l/m 34,5 km/h
S-SW
- 5,33 h 1,1 UV-I 394 W/m 64,4 km/h
S-SW
Durchschnitt -0,1 C 94 % 1014,2 hPa #89,6 l/m 4,0 km/h S-SW #15:22 h 0,6 UV-I 49 W/m 13,7 km/h

Durchschnitt Minimum Temp.-2,1 C
Durchschnitt Maximum Temp.1,5 C